レヴィ彗星

P/2006 T1 ( Levy )

English version
Home page
Total 6,336 html files since Dec. 4, 1995
Updated on April 20, 2007

---------------------------------------------------------------------

・ プロフィール

発見日 2006年10月2日
発見光度 10.5等
発見者 David H. Levy (Tucson, AZ)

・ 写真集

・ 軌道要素

T 2006 Oct. 7.4282 TT                                   MPC
q   0.989464             (2000.0)            P               Q
n   0.1879806      Peri.  179.4501      -0.1613147      -0.9370324
a   3.018057       Node   279.8052      +0.9042616      -0.0146095
e   0.672152       Incl.   18.3214      +0.3953334      -0.3489366
P   5.24
From 290 observations 2006 Oct. 2-Dec. 1.

・ 星図

・ 光度変化

        H = 20  G = 0.15                    [  ,-6]  (              〜2006年10月 1日)
        m1 = 9 + 5 logΔ + 70 log r(t + 6)  [-6,  ]  (2006年10月 1日〜              )

---------------------------------------------------------------------

軌道要素はM.P.E.C. 2006-X54に掲載されたものです。
星図は StellaNavigator Ver.2.0 for Windows (アストロアーツ 編著 / アスキー出版局刊) で作成したものです。
光度グラフはComet for Windowsで作成したものです。

---------------------------------------------------------------------

Copyright(C) 1995-2008 Seiichi Yoshida (comet@aerith.net). All rights reserved.